TimeCST,TemperatureF,Dew PointF,Humidity,Sea Level PressureIn,VisibilityMPH,Wind Direction,Wind SpeedMPH,Gust SpeedMPH,PrecipitationIn,Events,Conditions,WindDirDegrees,DateUTC
12:53 AM,39.9,21.0,47,30.17,10.0,ESE,6.9,-,N/A,,Clear,120,2012-12-14 06:53:00
1:53 AM,39.9,21.0,47,30.17,10.0,East,5.8,-,N/A,,Clear,100,2012-12-14 07:53:00
2:53 AM,39.0,21.0,49,30.19,10.0,SE,4.6,-,N/A,,Clear,130,2012-12-14 08:53:00
3:53 AM,41.0,19.9,43,30.17,10.0,ESE,4.6,-,N/A,,Clear,120,2012-12-14 09:53:00
4:53 AM,37.0,21.9,54,30.17,10.0,ESE,6.9,-,N/A,,Clear,120,2012-12-14 10:53:00
5:53 AM,36.0,21.9,57,30.18,10.0,ESE,6.9,-,N/A,,Clear,120,2012-12-14 11:53:00
6:53 AM,35.1,21.9,59,30.19,10.0,SSE,3.5,-,N/A,,Clear,150,2012-12-14 12:53:00
7:53 AM,39.0,23.0,53,30.19,10.0,SE,10.4,-,N/A,,Clear,140,2012-12-14 13:53:00
8:53 AM,42.1,24.1,49,30.20,10.0,SSE,9.2,-,N/A,,Clear,160,2012-12-14 14:53:00
9:53 AM,46.0,26.1,46,30.19,10.0,ESE,5.8,-,N/A,,Clear,120,2012-12-14 15:53:00
10:53 AM,50.0,27.0,41,30.17,10.0,SSE,9.2,-,N/A,,Clear,150,2012-12-14 16:53:00
11:53 AM,53.1,24.1,32,30.14,10.0,SSE,9.2,-,N/A,,Clear,160,2012-12-14 17:53:00
12:53 PM,54.0,25.0,33,30.12,10.0,SSE,10.4,-,N/A,,Clear,160,2012-12-14 18:53:00
1:53 PM,55.0,26.1,33,30.09,10.0,South,8.1,-,N/A,,Clear,170,2012-12-14 19:53:00
2:53 PM,53.1,24.1,32,30.04,10.0,SSE,8.1,-,N/A,,Overcast,150,2012-12-14 20:53:00
3:53 PM,52.0,25.0,35,30.03,10.0,SSE,8.1,-,N/A,,Mostly Cloudy,150,2012-12-14 21:53:00
4:53 PM,51.1,23.0,33,30.01,10.0,SE,13.8,-,N/A,,Overcast,130,2012-12-14 22:53:00
5:53 PM,50.0,25.0,38,30.01,10.0,SE,12.7,-,N/A,,Mostly Cloudy,140,2012-12-14 23:53:00
6:53 PM,48.9,26.1,41,30.02,10.0,SE,11.5,-,N/A,,Overcast,140,2012-12-15 00:53:00
7:53 PM,48.0,30.9,52,29.97,10.0,SE,15.0,-,0.00,,Overcast,140,2012-12-15 01:53:00
8:53 PM,46.0,36.0,68,29.98,10.0,SSE,10.4,19.6,0.01,Rain,Light Rain,160,2012-12-15 02:53:00
9:53 PM,45.0,37.9,76,29.93,10.0,SE,11.5,-,0.00,,Overcast,140,2012-12-15 03:53:00
10:53 PM,46.9,37.9,71,29.91,10.0,SSE,19.6,26.5,N/A,,Overcast,160,2012-12-15 04:53:00
11:28 PM,46.4,39.2,76,29.88,10.0,SSE,18.4,26.5,0.00,,Mostly Cloudy,150,2012-12-15 05:28:00
11:40 PM,46.4,39.2,76,29.87,10.0,SSE,20.7,-,0.00,,Scattered Clouds,150,2012-12-15 05:40:00
11:53 PM,46.4,39.2,76,29.86,10.0,SSE,17.3,26.5,N/A,,Scattered Clouds,150,2012-12-15 05:53:00